Location: Newark
(5.8900°S, 42.6378°W)
Time: 08:57:50
(UTC+00:00)

Vanguard 1 Rocket - Pass Details

Date: 23 October 2019
Orbit: 651 x 4225 km, 34.3° (Epoch: 11 November)

Event Time Altitude Azimuth Distance (km) Brightness Sun altitude
Rises 19:16:26 0° 317° (NW) 8,232 12.7 20.3°
Reaches altitude 10° 19:22:18 10° 322° (NW) 7,364 12.5 18.9°
Maximum altitude 19:47:50 57° 35° (NE) 4,159 10.7 12.7°
Drops below altitude 10° 20:05:05 10° 109° (ESE) 5,309 10.8 8.4°
Sets 20:08:25 0° 113° (ESE) 5,936 11.0 7.6°
